| time (UTC) | temp F | wind direction | speed MPH | gust MPH | rain 1hr in | rain 24hr in | rain mn in | humidity % | barometer mb |
| 20260504011116 | 65 | 112 | 3.0 | 3.0 | 0.00 | 0.00 | 0.00 | 41 | 1008.5 |
| 20260504010616 | 66 | 114 | 3.0 | 5.0 | 0.00 | 0.00 | 0.00 | 41 | 1008.5 |
| 20260504010116 | 66 | 139 | 4.0 | 7.0 | 0.00 | 0.00 | 0.00 | 40 | 1008.5 |
| 20260504005617 | 66 | 125 | 5.0 | 8.0 | 0.00 | 0.00 | 0.00 | 41 | 1008.1 |
| 20260504005115 | 66 | 252 | 1.0 | 2.0 | 0.00 | 0.00 | 0.00 | 40 | 1007.8 |
| 20260504004615 | 66 | 116 | 4.0 | 7.0 | 0.00 | 0.00 | 0.00 | 40 | 1007.8 |
| 20260504004117 | 66 | 91 | 2.0 | 3.0 | 0.00 | 0.00 | 0.00 | 40 | 1007.8 |
| 20260504003616 | 66 | 228 | 1.0 | 2.0 | 0.00 | 0.00 | 0.00 | 40 | 1007.8 |
| 20260504003116 | 67 | 339 | 2.0 | 3.0 | 0.00 | 0.00 | 0.00 | 40 | 1007.8 |
| 20260504002616 | 67 | 300 | 3.0 | 6.0 | 0.00 | 0.00 | 0.00 | 40 | 1007.8 |
| 20260504002115 | 67 | 266 | 1.0 | 2.0 | 0.00 | 0.00 | 0.00 | 40 | 1007.8 |
| 20260504001617 | 67 | 261 | 3.0 | 7.0 | 0.00 | 0.00 | 0.00 | 40 | 1007.5 |
| 20260504001115 | 67 | 188 | 4.0 | 5.0 | 0.00 | 0.00 | 0.00 | 40 | 1007.5 |
| 20260504000616 | 67 | 216 | 2.0 | 3.0 | 0.00 | 0.00 | 0.00 | 39 | 1007.8 |
| 20260504000115 | 68 | 352 | 5.0 | 7.0 | 0.00 | 0.00 | 0.00 | 39 | 1007.5 |
| 20260503235616 | 68 | 100 | 5.0 | 8.0 | 0.00 | 0.00 | 0.00 | 39 | 1007.5 |
| 20260503235114 | 68 | 107 | 5.0 | 8.0 | 0.00 | 0.00 | 0.00 | 39 | 1007.5 |
| 20260503234614 | 68 | 11 | 3.0 | 5.0 | 0.00 | 0.00 | 0.00 | 39 | 1007.5 |
| 20260503234114 | 68 | 5 | 3.0 | 6.0 | 0.00 | 0.00 | 0.00 | 39 | 1007.5 |
| 20260503233614 | 69 | 124 | 3.0 | 5.0 | 0.00 | 0.00 | 0.00 | 38 | 1007.5 |
| 20260503233114 | 69 | 71 | 6.0 | 8.0 | 0.00 | 0.00 | 0.00 | 38 | 1007.5 |
| 20260503232614 | 69 | 145 | 3.0 | 5.0 | 0.00 | 0.00 | 0.00 | 38 | 1007.5 |
| 20260503232113 | 69 | 146 | 4.0 | 8.0 | 0.00 | 0.00 | 0.00 | 37 | 1007.1 |
| 20260503231614 | 70 | 355 | 8.0 | 10.0 | 0.00 | 0.00 | 0.00 | 37 | 1007.5 |
| 20260503231113 | 70 | 213 | 3.0 | 7.0 | 0.00 | 0.00 | 0.00 | 37 | 1007.5 |
| 20260503230613 | 71 | 104 | 6.0 | 10.0 | 0.00 | 0.00 | 0.00 | 37 | 1007.1 |
| 20260503230113 | 72 | 236 | 3.0 | 5.0 | 0.00 | 0.00 | 0.00 | 37 | 1007.1 |
| 20260503225615 | 72 | 176 | 2.0 | 3.0 | 0.00 | 0.00 | 0.00 | 37 | 1007.1 |
| 20260503225112 | 73 | 139 | 4.0 | 8.0 | 0.00 | 0.00 | 0.00 | 37 | 1007.1 |
| 20260503224614 | 73 | 165 | 2.0 | 2.0 | 0.00 | 0.00 | 0.00 | 36 | 1007.1 |
| 20260503224115 | 73 | 136 | 5.0 | 9.0 | 0.00 | 0.00 | 0.00 | 33 | 1006.8 |
| 20260503223612 | 72 | 154 | 2.0 | 3.0 | 0.00 | 0.00 | 0.00 | 33 | 1007.1 |
| 20260503223112 | 72 | 205 | 0.0 | 1.0 | 0.00 | 0.00 | 0.00 | 34 | 1006.8 |
| 20260503222612 | 72 | 29 | 5.0 | 7.0 | 0.00 | 0.00 | 0.00 | 33 | 1007.1 |
| 20260503222111 | 72 | 0 | 3.0 | 5.0 | 0.00 | 0.00 | 0.00 | 33 | 1006.8 |
| 20260503221614 | 72 | 49 | 4.0 | 8.0 | 0.00 | 0.00 | 0.00 | 34 | 1006.8 |
| 20260503221112 | 72 | 342 | 1.0 | 2.0 | 0.00 | 0.00 | 0.00 | 33 | 1007.1 |
| 20260503220616 | 72 | 178 | 2.0 | 3.0 | 0.00 | 0.00 | 0.00 | 34 | 1007.1 |
| 20260503220111 | 72 | 85 | 5.0 | 5.0 | 0.00 | 0.00 | 0.00 | 34 | 1007.1 |
| 20260503215611 | 72 | 101 | 1.0 | 1.0 | 0.00 | 0.00 | 0.00 | 33 | 1007.1 |
| 20260503215110 | 72 | 93 | 3.0 | 5.0 | 0.00 | 0.00 | 0.00 | 34 | 1007.5 |
| 20260503214612 | 72 | 99 | 3.0 | 5.0 | 0.00 | 0.00 | 0.00 | 34 | 1007.1 |
| 20260503214110 | 72 | 44 | 5.0 | 9.0 | 0.00 | 0.00 | 0.00 | 34 | 1007.1 |
| 20260503213611 | 72 | 190 | 2.0 | 3.0 | 0.00 | 0.00 | 0.00 | 33 | 1007.1 |
| 20260503213113 | 72 | 227 | 2.0 | 2.0 | 0.00 | 0.00 | 0.00 | 33 | 1007.1 |
| 20260503212610 | 72 | 111 | 4.0 | 7.0 | 0.00 | 0.00 | 0.00 | 33 | 1007.1 |
| 20260503212113 | 72 | 169 | 2.0 | 3.0 | 0.00 | 0.00 | 0.00 | 34 | 1007.1 |
| 20260503211611 | 72 | 196 | 1.0 | 2.0 | 0.00 | 0.00 | 0.00 | 33 | 1007.1 |
| 20260503211109 | 72 | 107 | 2.0 | 2.0 | 0.00 | 0.00 | 0.00 | 33 | 1007.1 |
| 20260503210614 | 72 | 112 | 4.0 | 6.0 | 0.00 | 0.00 | 0.00 | 34 | 1007.1 |
| 20260503210109 | 73 | 300 | 4.0 | 9.0 | 0.00 | 0.00 | 0.00 | 34 | 1007.5 |
| 20260503205612 | 73 | 49 | 5.0 | 7.0 | 0.00 | 0.00 | 0.00 | 34 | 1007.5 |
| 20260503205112 | 73 | 96 | 5.0 | 9.0 | 0.00 | 0.00 | 0.00 | 33 | 1007.5 |
| 20260503204609 | 74 | 168 | 3.0 | 5.0 | 0.00 | 0.00 | 0.00 | 33 | 1007.5 |
| 20260503204110 | 74 | 32 | 3.0 | 3.0 | 0.00 | 0.00 | 0.00 | 33 | 1007.5 |
| 20260503203543 | 74 | 173 | 1.0 | 2.0 | 0.00 | 0.00 | 0.00 | 30 | 1007.5 |
| 20260503203040 | 73 | 44 | 1.0 | 3.0 | 0.00 | 0.00 | 0.00 | 30 | 1007.8 |
| 20260503202536 | 73 | 155 | 1.0 | 2.0 | 0.00 | 0.00 | 0.00 | 30 | 1007.5 |
| 20260503202043 | 73 | 10 | 5.0 | 7.0 | 0.00 | 0.00 | 0.00 | 30 | 1007.8 |
| 20260503201538 | 72 | 303 | 4.0 | 5.0 | 0.00 | 0.00 | 0.00 | 30 | 1007.5 |
| 20260503201040 | 72 | 299 | 0.0 | 1.0 | 0.00 | 0.00 | 0.00 | 31 | 1007.5 |
| 20260503200541 | 72 | 105 | 3.0 | 5.0 | 0.00 | 0.00 | 0.00 | 30 | 1007.5 |
| 20260503200039 | 71 | 118 | 2.0 | 2.0 | 0.00 | 0.00 | 0.00 | 31 | 1007.8 |
| 20260503195538 | 71 | 74 | 4.0 | 5.0 | 0.00 | 0.00 | 0.00 | 30 | 1007.8 |
| 20260503195038 | 71 | 258 | 2.0 | 3.0 | 0.00 | 0.00 | 0.00 | 31 | 1008.1 |
| 20260503194537 | 71 | 270 | 3.0 | 5.0 | 0.00 | 0.00 | 0.00 | 31 | 1008.1 |
| 20260503194039 | 71 | 49 | 5.0 | 7.0 | 0.00 | 0.00 | 0.00 | 31 | 1008.1 |
| 20260503193537 | 72 | 313 | 2.0 | 3.0 | 0.00 | 0.00 | 0.00 | 31 | 1008.1 |
| 20260503193036 | 71 | 115 | 3.0 | 3.0 | 0.00 | 0.00 | 0.00 | 32 | 1008.1 |
| 20260503192543 | 71 | 99 | 2.0 | 3.0 | 0.00 | 0.00 | 0.00 | 31 | 1008.1 |
| 20260503192036 | 71 | 88 | 2.0 | 5.0 | 0.00 | 0.00 | 0.00 | 32 | 1008.1 |
| 20260503191538 | 70 | 110 | 0.0 | 1.0 | 0.00 | 0.00 | 0.00 | 32 | 1008.5 |
| 20260503191036 | 70 | 320 | 2.0 | 3.0 | 0.00 | 0.00 | 0.00 | 31 | 1008.5 |
| 20260503190535 | 69 | 59 | 2.0 | 2.0 | 0.00 | 0.00 | 0.00 | 33 | 1008.5 |
| 20260503190042 | 69 | 291 | 2.0 | 3.0 | 0.00 | 0.00 | 0.00 | 34 | 1008.8 |
| 20260503185539 | 69 | 307 | 1.0 | 2.0 | 0.00 | 0.00 | 0.00 | 34 | 1008.8 |
| 20260503185041 | 69 | 293 | 3.0 | 3.0 | 0.00 | 0.00 | 0.00 | 31 | 1008.8 |
| 20260503184540 | 69 | 55 | 6.0 | 8.0 | 0.00 | 0.00 | 0.00 | 31 | 1008.8 |
| 20260503184112 | 68 | 267 | 6.0 | 9.0 | 0.00 | 0.00 | 0.00 | 32 | 1008.8 |
| 20260503183611 | 68 | 296 | 5.0 | 6.0 | 0.00 | 0.00 | 0.00 | 32 | 1008.8 |
| 20260503183114 | 68 | 264 | 5.0 | 6.0 | 0.00 | 0.00 | 0.00 | 32 | 1008.8 |
| 20260503182613 | 68 | 281 | 4.0 | 5.0 | 0.00 | 0.00 | 0.00 | 32 | 1008.8 |
| 20260503182111 | 68 | 267 | 5.0 | 9.0 | 0.00 | 0.00 | 0.00 | 34 | 1009.1 |
| 20260503181611 | 68 | 329 | 2.0 | 3.0 | 0.00 | 0.00 | 0.00 | 34 | 1008.8 |
| 20260503181113 | 68 | 257 | 4.0 | 7.0 | 0.00 | 0.00 | 0.00 | 34 | 1009.1 |
| 20260503180617 | 68 | 258 | 4.0 | 6.0 | 0.00 | 0.00 | 0.00 | 34 | 1009.1 |
| 20260503180110 | 68 | 310 | 4.0 | 6.0 | 0.00 | 0.00 | 0.00 | 34 | 1009.1 |
| 20260503175612 | 67 | 21 | 3.0 | 6.0 | 0.00 | 0.00 | 0.00 | 33 | 1009.1 |
| 20260503175113 | 67 | 290 | 4.0 | 6.0 | 0.00 | 0.00 | 0.00 | 34 | 1009.1 |
| 20260503174614 | 67 | 18 | 3.0 | 5.0 | 0.00 | 0.00 | 0.00 | 35 | 1009.5 |
| 20260503174110 | 67 | 293 | 5.0 | 6.0 | 0.00 | 0.00 | 0.00 | 35 | 1009.5 |
| 20260503173610 | 67 | 234 | 9.0 | 14.0 | 0.00 | 0.00 | 0.00 | 35 | 1009.5 |
| 20260503173113 | 67 | 162 | 3.0 | 5.0 | 0.00 | 0.00 | 0.00 | 36 | 1009.8 |
| 20260503172612 | 67 | 322 | 3.0 | 5.0 | 0.00 | 0.00 | 0.00 | 35 | 1009.8 |
| 20260503172113 | 66 | 242 | 3.0 | 5.0 | 0.00 | 0.00 | 0.00 | 35 | 1009.8 |
| 20260503171612 | 66 | 218 | 4.0 | 6.0 | 0.00 | 0.00 | 0.00 | 35 | 1009.8 |
| 20260503171137 | 66 | 289 | 6.0 | 8.0 | 0.00 | 0.00 | 0.00 | 36 | 1009.8 |
| 20260503170638 | 66 | 260 | 1.0 | 2.0 | 0.00 | 0.00 | 0.00 | 36 | 1010.2 |
| 20260503170141 | 65 | 278 | 3.0 | 3.0 | 0.00 | 0.00 | 0.00 | 35 | 1009.5 |
| 20260503150510 | 54 | 288 | 3.0 | 3.0 | 0.00 | 0.00 | 0.00 | 47 | 1010.2 |
| 20260503140312 | 49 | 268 | 1.0 | 1.0 | 0.00 | 0.00 | 0.00 | 51 | 1010.5 |
| 20260503131334 | 48 | 285 | 0.0 | 1.0 | 0.00 | 0.00 | 0.00 | 51 | 1010.2 |
| 20260503130837 | 48 | 308 | 1.0 | 2.0 | 0.00 | 0.00 | 0.00 | 51 | 1010.2 |
| 20260503130333 | 49 | 246 | 0.0 | 1.0 | 0.00 | 0.00 | 0.00 | 51 | 1010.2 |
| 20260503110330 | 50 | 233 | 0.0 | 1.0 | 0.00 | 0.00 | 0.00 | 48 | 1010.5 |
| 20260503090329 | 52 | 259 | 2.0 | 2.0 | 0.00 | 0.00 | 0.00 | 45 | 1010.5 |
| 20260503081327 | 54 | 280 | 1.0 | 2.0 | 0.00 | 0.00 | 0.00 | 43 | 1010.5 |
| 20260503080828 | 54 | 290 | 3.0 | 5.0 | 0.00 | 0.00 | 0.00 | 43 | 1010.5 |
| 20260503080329 | 54 | 278 | 3.0 | 3.0 | 0.00 | 0.00 | 0.00 | 42 | 1010.5 |
| 20260503072828 | 55 | 294 | 4.0 | 5.0 | 0.00 | 0.00 | 0.00 | 42 | 1010.8 |
| 20260503072325 | 55 | 322 | 3.0 | 5.0 | 0.00 | 0.00 | 0.00 | 42 | 1010.5 |
| 20260503071828 | 55 | 286 | 3.0 | 5.0 | 0.00 | 0.00 | 0.00 | 42 | 1010.5 |
| 20260503071325 | 55 | 338 | 3.0 | 6.0 | 0.00 | 0.00 | 0.00 | 41 | 1010.8 |
| 20260503070827 | 55 | 260 | 3.0 | 3.0 | 0.00 | 0.00 | 0.00 | 42 | 1010.8 |
| 20260503070324 | 55 | 239 | 4.0 | 7.0 | 0.00 | 0.00 | 0.00 | 41 | 1010.8 |
| 20260503060325 | 53 | 277 | 2.0 | 2.0 | 0.00 | 0.00 | 0.00 | 43 | 1010.8 |
| 20260503054825 | 53 | 242 | 0.0 | 1.0 | 0.00 | 0.00 | 0.00 | 45 | 1010.8 |
| 20260503054327 | 54 | 235 | 0.0 | 0.0 | 0.00 | 0.00 | 0.00 | 46 | 1010.8 |
| 20260503053827 | 54 | 237 | 0.0 | 1.0 | 0.00 | 0.00 | 0.00 | 47 | 1011.2 |
| 20260503053326 | 54 | 232 | 0.0 | 1.0 | 0.00 | 0.00 | 0.00 | 47 | 1011.2 |
| 20260503052827 | 54 | 224 | 0.0 | 1.0 | 0.00 | 0.00 | 0.00 | 47 | 1010.8 |
| 20260503052353 | 54 | 217 | 0.0 | 0.0 | 0.00 | 0.00 | 0.00 | 48 | 1010.8 |
| 20260503051856 | 54 | 252 | 0.0 | 0.0 | 0.00 | 0.00 | 0.00 | 49 | 1011.2 |
| 20260503051350 | 54 | 206 | 0.0 | 0.0 | 0.00 | 0.00 | 0.00 | 50 | 1011.2 |
| 20260503050855 | 54 | 233 | 0.0 | 0.0 | 0.00 | 0.00 | 0.00 | 49 | 1011.2 |
| 20260503050425 | 54 | 232 | 0.0 | 0.0 | 0.00 | 0.00 | 0.00 | 49 | 1010.8 |
| 20260503045951 | 54 | 232 | 0.0 | 0.0 | 0.00 | 0.00 | 0.00 | 49 | 1011.2 |
| 20260503045452 | 54 | 244 | 0.0 | 1.0 | 0.00 | 0.00 | 0.00 | 51 | 1011.2 |
| 20260503044951 | 55 | 227 | 1.0 | 2.0 | 0.00 | 0.00 | 0.00 | 56 | 1010.8 |
| 20260503044523 | 55 | 196 | 0.0 | 0.0 | 0.00 | 0.00 | 0.00 | 60 | 1010.8 |
| 20260503044026 | 55 | 198 | 0.0 | 0.0 | 0.00 | 0.00 | 0.00 | 60 | 1011.2 |
| 20260503043553 | 56 | 200 | 0.0 | 0.0 | 0.00 | 0.00 | 0.00 | 64 | 1010.8 |
| 20260503043125 | 56 | 199 | 0.0 | 0.0 | 0.00 | 0.00 | 0.00 | 63 | 1010.8 |
| 20260503042625 | 57 | 200 | 0.0 | 0.0 | 0.00 | 0.00 | 0.00 | 63 | 1010.8 |
| 20260503042152 | 57 | 199 | 0.0 | 0.0 | 0.00 | 0.00 | 0.00 | 62 | 1011.2 |
| 20260503041655 | 57 | 199 | 0.0 | 0.0 | 0.00 | 0.00 | 0.00 | 61 | 1010.8 |
| 20260503041226 | 58 | 200 | 0.0 | 0.0 | 0.00 | 0.00 | 0.00 | 59 | 1010.8 |
| 20260503040725 | 58 | 211 | 0.0 | 0.0 | 0.00 | 0.00 | 0.00 | 59 | 1010.8 |
| 20260503040226 | 58 | 205 | 0.0 | 0.0 | 0.00 | 0.00 | 0.00 | 59 | 1010.8 |
| 20260503035725 | 59 | 195 | 0.0 | 0.0 | 0.00 | 0.00 | 0.00 | 58 | 1010.8 |
| 20260503035223 | 59 | 174 | 0.0 | 0.0 | 0.00 | 0.00 | 0.00 | 58 | 1010.8 |
| 20260503034727 | 59 | 250 | 0.0 | 1.0 | 0.00 | 0.00 | 0.00 | 57 | 1010.5 |
| 20260503034226 | 59 | 203 | 0.0 | 1.0 | 0.00 | 0.00 | 0.00 | 57 | 1010.5 |
| 20260503033724 | 60 | 237 | 1.0 | 2.0 | 0.00 | 0.00 | 0.00 | 56 | 1010.5 |
| 20260503033224 | 60 | 278 | 2.0 | 3.0 | 0.00 | 0.00 | 0.00 | 56 | 1010.5 |
| 20260503032724 | 60 | 211 | 0.0 | 0.0 | 0.00 | 0.00 | 0.00 | 55 | 1010.8 |
| 20260503032224 | 61 | 206 | 0.0 | 1.0 | 0.00 | 0.00 | 0.00 | 54 | 1010.5 |
| 20260503031725 | 61 | 292 | 2.0 | 2.0 | 0.00 | 0.00 | 0.00 | 54 | 1010.5 |
| 20260503031224 | 62 | 242 | 0.0 | 1.0 | 0.00 | 0.00 | 0.00 | 53 | 1010.5 |
| 20260503030723 | 62 | 267 | 2.0 | 2.0 | 0.00 | 0.00 | 0.00 | 52 | 1010.8 |
| 20260503030224 | 62 | 299 | 2.0 | 2.0 | 0.00 | 0.00 | 0.00 | 52 | 1010.5 |
| 20260503025726 | 62 | 289 | 1.0 | 2.0 | 0.00 | 0.00 | 0.00 | 52 | 1010.5 |
| 20260503025223 | 63 | 286 | 0.0 | 1.0 | 0.00 | 0.00 | 0.00 | 51 | 1010.5 |
| 20260503024728 | 63 | 287 | 1.0 | 2.0 | 0.00 | 0.00 | 0.00 | 51 | 1010.5 |
| 20260503024223 | 64 | 189 | 1.0 | 2.0 | 0.00 | 0.00 | 0.00 | 50 | 1010.5 |
| 20260503023726 | 64 | 208 | 1.0 | 1.0 | 0.00 | 0.00 | 0.00 | 50 | 1010.2 |
| 20260503023225 | 64 | 262 | 1.0 | 1.0 | 0.00 | 0.00 | 0.00 | 49 | 1010.2 |
| 20260503022726 | 64 | 139 | 1.0 | 2.0 | 0.00 | 0.00 | 0.00 | 48 | 1010.2 |
| 20260503022225 | 65 | 354 | 0.0 | 1.0 | 0.00 | 0.00 | 0.00 | 47 | 1010.5 |
| 20260503021726 | 65 | 221 | 0.0 | 0.0 | 0.00 | 0.00 | 0.00 | 47 | 1010.5 |
| 20260503021229 | 66 | 171 | 0.0 | 1.0 | 0.00 | 0.00 | 0.00 | 47 | 1010.5 |
| 20260503020656 | 67 | 341 | 0.0 | 0.0 | 0.00 | 0.00 | 0.00 | 47 | 1010.2 |
| 20260503020154 | 68 | 26 | 1.0 | 2.0 | 0.00 | 0.00 | 0.00 | 46 | 1010.5 |
| 20260503015653 | 68 | 252 | 1.0 | 3.0 | 0.00 | 0.00 | 0.00 | 45 | 1010.5 |
| 20260503015129 | 69 | 180 | 1.0 | 2.0 | 0.00 | 0.00 | 0.00 | 44 | 1010.5 |
| 20260503014623 | 69 | 216 | 0.0 | 1.0 | 0.00 | 0.00 | 0.00 | 42 | 1010.5 |
| 20260503014125 | 70 | 130 | 0.0 | 1.0 | 0.00 | 0.00 | 0.00 | 40 | 1010.5 |
| 20260503013623 | 70 | 175 | 2.0 | 2.0 | 0.00 | 0.00 | 0.00 | 39 | 1010.5 |
| 20260503013124 | 70 | 134 | 0.0 | 1.0 | 0.00 | 0.00 | 0.00 | 38 | 1010.5 |
| 20260503012626 | 71 | 157 | 1.0 | 2.0 | 0.00 | 0.00 | 0.00 | 39 | 1010.5 |
| 20260503012126 | 71 | 218 | 0.0 | 0.0 | 0.00 | 0.00 | 0.00 | 39 | 1010.5 |
| 20260503011627 | 71 | 264 | 1.0 | 2.0 | 0.00 | 0.00 | 0.00 | 38 | 1010.5 |